Weather History for Corpus Christi, TX

Change the Weather History Date:

Monday, November 19, 2012

  Actual Average Record
Temperature  
Mean Temperature 69 °F 65 °F  
Max Temperature 81 °F 75 °F 90 °F (1953)
Min Temperature 57 °F 55 °F 34 °F (1959)
Degree Days  
Heating Degree Days 0 3  
Month to date heating degree days 18 39  
Since 1 July heating degree days 27 49  
Cooling Degree Days 4 3  
Month to date cooling degree days 127 93  
Year to date cooling degree days 4330 3444  
Growing Degree Days 19 (Base 50)    
Moisture  
Dew Point 56 °F    
Average Humidity 63    
Maximum Humidity 84    
Minimum Humidity 42    
Precipitation  
Precipitation 0.00 in 0.06 in 2.14 in (1905)
Month to date precipitation 0.47 1.41  
Year to date precipitation 18.67 29.37  
Snow  
Snow 0.00 in - - ()
Month to date snowfall 0.0  
Since 1 July snowfall 0.0  
Since 1 September snowfall 0.0  
Snow Depth 0.00 in    
Sea Level Pressure  
Sea Level Pressure 30.18 in    
Wind  
Wind Speed 7 mph (ESE)    
Max Wind Speed 16 mph    
Max Gust Speed 22 mph    
Visibility 10 miles    
Events      
T = Trace of Precipitation, MM = Missing Value Source: NWS Daily Summary

Daily Weather History Graph

Daily Weather History Graph

Search for Another Location

Airport:

Trip Planner

Search our weather history database for the weather conditions in past years. The results will help you decide how hot, cold, wet, or windy it might be!

Date:

Astronomy

Nov. 19, 2012 Rise Set
Actual Time 6:54 AM CST 5:36 PM CST
Civil Twilight 6:29 AM CST 6:01 PM CST
Nautical Twilight 6:01 AM CST 6:29 PM CST
Astronomical Twilight 5:33 AM CST 6:57 PM CST
Moon 12:09 PM CST (11/19) 11:50 PM CST (11/19)
Length of Visible Light 11h 31m
Length of Day
10h 41m
Waxing Crescent, 41% of the Moon is Illuminated
Nov 19
Waxing Crescent
Nov 20
First Quarter
Nov 28
Full
Dec 6
Last Quarter
Dec 13
New

Hourly Weather History & Observations

Time (CST) Temp. Heat Index Dew Point Humidity Pressure Visibility Wind Dir Wind Speed Gust Speed Precip Events Conditions
12:51 AM 62.1 °F - 57.0 °F 84% 30.20 in 10.0 mi Calm Calm - N/A   Clear
1:51 AM 61.0 °F - 53.1 °F 75% 30.20 in 10.0 mi ESE 3.5 mph - N/A   Clear
2:51 AM 61.0 °F - 54.0 °F 78% 30.19 in 10.0 mi East 4.6 mph - N/A   Clear
3:51 AM 60.1 °F - 54.0 °F 80% 30.18 in 10.0 mi East 3.5 mph - N/A   Clear
4:51 AM 60.1 °F - 55.0 °F 83% 30.17 in 10.0 mi ESE 5.8 mph - N/A   Partly Cloudy
5:51 AM 57.9 °F - 52.0 °F 81% 30.19 in 10.0 mi East 3.5 mph - N/A   Clear
6:51 AM 60.1 °F - 55.9 °F 86% 30.20 in 10.0 mi Calm Calm - N/A   Partly Cloudy
7:51 AM 66.0 °F - 60.1 °F 81% 30.22 in 10.0 mi East 3.5 mph - N/A   Mostly Cloudy
8:51 AM 73.0 °F - 59.0 °F 61% 30.23 in 10.0 mi ESE 5.8 mph - N/A   Mostly Cloudy
9:51 AM 75.9 °F - 55.9 °F 50% 30.24 in 10.0 mi ESE 9.2 mph - N/A   Scattered Clouds
10:51 AM 79.0 °F - 55.9 °F 45% 30.23 in 10.0 mi ESE 11.5 mph 16.1 mph N/A   Mostly Cloudy
11:51 AM 80.1 °F 80.2 °F 55.9 °F 43% 30.21 in 10.0 mi East 12.7 mph - N/A   Scattered Clouds
12:51 PM 80.1 °F 80.4 °F 57.0 °F 45% 30.19 in 10.0 mi East 12.7 mph 18.4 mph N/A   Scattered Clouds
1:51 PM 80.1 °F 80.4 °F 57.0 °F 45% 30.16 in 10.0 mi East 16.1 mph - N/A   Scattered Clouds
2:51 PM 79.0 °F - 57.9 °F 48% 30.14 in 10.0 mi East 16.1 mph - N/A   Scattered Clouds
3:51 PM 78.1 °F - 57.9 °F 50% 30.13 in 10.0 mi East 15.0 mph - N/A   Scattered Clouds
4:51 PM 75.0 °F - 57.9 °F 55% 30.14 in 10.0 mi East 12.7 mph - N/A   Partly Cloudy
5:51 PM 73.0 °F - 57.0 °F 57% 30.15 in 10.0 mi SE 9.2 mph - N/A   Partly Cloudy
6:51 PM 71.1 °F - 57.0 °F 61% 30.18 in 10.0 mi ESE 5.8 mph - N/A   Partly Cloudy
7:51 PM 70.0 °F - 59.0 °F 68% 30.19 in 10.0 mi East 5.8 mph - N/A   Mostly Cloudy
8:51 PM 68.0 °F - 59.0 °F 73% 30.19 in 10.0 mi East 5.8 mph - N/A   Scattered Clouds
9:51 PM 68.0 °F - 59.0 °F 73% 30.18 in 10.0 mi East 6.9 mph - N/A   Partly Cloudy
10:51 PM 66.0 °F - 55.9 °F 70% 30.17 in 10.0 mi SE 3.5 mph - N/A   Partly Cloudy
11:51 PM 64.0 °F - 55.0 °F 73% 30.17 in 10.0 mi Calm Calm - N/A   Partly Cloudy